Location: Antoign�
(47.0844°N, 0.1131°W)
Time: 03:51:35
(UTC+00:00)

IRS-1A Rocket - Pass Details

Date: 03 March 2021
Orbit: 852 x 931 km, 99.2° (Epoch: 17 April)

Event Time Altitude Azimuth Distance (km) Brightness Sun altitude
Exits shadow 19:46:41 24° 153° (SSE) 1,723 5.4 -20.7°
Maximum altitude 19:50:09 75° 72° (ENE) 905 4.1 -21.3°
Drops below altitude 10° 19:55:43 10° 348° (NNW) 2,511 7.0 -22.2°
Sets 19:58:05 0° 347° (NNW) 3,445 7.8 -22.6°
